Wind_Speed
49 46 44 44 43 40 38 37 35 34 30 28 27 27 25 23 22 22 22 21 20 19 18 17 16 13 11 9 7 5 4 4
44 48 46 42 44 45 43 42 39 38 36 35 33 33 28 25 25 24 24 22 21 19 18 17 15 13 11 9 7 5 4 5
32 44 49 52 50 48 48 47 44 42 39 38 35 33 28 25 25 25 25 25 23 21 20 19 17 14 12 10 9 8 8 10
30 38 47 54 57 54 53 50 47 44 42 39 34 32 29 29 28 26 26 25 23 22 20 18 15 13 11 10 10 10 11 13
21 37 45 53 58 54 52 49 48 45 42 40 36 32 34 33 26 25 25 24 23 22 21 19 17 15 13 12 11 10 11 12
20 32 43 47 51 52 53 51 50 43 36 28 27 30 28 23 23 23 22 22 21 20 18 17 16 15 13 11 10 10 10 10
7 18 23 29 34 40 46 47 39 29 23 22 22 22 22 22 22 20 19 19 20 19 18 17 17 15 13 12 11 11 10 10
17 16 17 18 21 28 31 26 22 18 15 12 15 20 19 19 19 16 16 19 20 19 18 17 16 15 13 11 11 10 9 9
14 12 11 12 16 18 15 13 11 5 4 10 13 19 20 18 17 17 16 17 16 17 19 18 16 14 13 11 11 10 9 8
29 26 21 17 16 5 3 4 2 3 5 10 19 20 24 23 20 18 17 17 17 17 19 19 18 15 13 12 9 9 9 9
24 17 10 11 3 3 5 8 9 15 3 15 19 25 23 26 20 21 21 21 19 17 17 19 18 16 13 10 10 10 9 11
16 11 9 11 9 14 20 17 13 20 14 30 27 26 28 23 22 22 23 22 19 17 18 19 16 15 14 13 12 11 11 11
3 3 9 15 20 20 22 20 22 18 22 25 22 23 23 20 19 22 22 20 18 16 17 18 18 20 16 15 9 12 11 11
8 10 12 13 16 18 18 18 18 19 20 18 18 18 17 16 18 20 20 19 17 21 23 23 21 18 17 14 13 13 12 13
16 16 18 17 17 17 17 17 15 13 13 13 15 15 14 15 16 18 19 22 23 23 22 20 22 24 19 21 16 14 13 12
21 17 19 24 23 22 21 18 17 17 17 15 16 17 16 16 17 19 19 18 20 21 23 24 23 22 21 17 13 14 12 10
25 21 22 24 27 26 24 20 18 20 20 19 20 20 18 18 14 14 18 20 24 23 23 20 19 17 15 9 11 12 10 9
24 24 24 25 27 26 25 20 19 22 23 23 22 22 21 22 21 20 21 23 22 19 19 17 15 16 18 14 13 12 11 11
24 24 26 26 27 27 26 25 23 23 23 24 24 23 21 23 22 22 21 21 20 18 17 15 15 16 14 16 12 15 14 12
Wind_Direction
226 224 220 226 223 221 215 218 211 211 207 210 214 215 219 218 220 221 223 223 224 225 226 225 220 219 221 224 229 242 258 261
223 223 221 225 227 225 222 215 213 210 210 208 214 215 215 218 220 221 222 222 223 224 223 223 221 221 220 221 225 233 229 204
231 223 218 220 223 226 221 215 212 210 215 217 218 216 219 225 222 219 220 222 222 222 222 221 222 221 219 218 216 209 204 192
240 226 222 220 222 223 218 219 212 210 214 213 213 216 220 220 218 217 217 220 220 219 219 219 221 221 220 223 221 215 211 203
259 235 221 222 220 220 221 218 212 211 211 210 213 220 222 219 218 217 218 219 219 218 217 217 218 221 223 225 227 223 220 217
269 238 230 215 213 213 215 212 205 202 203 211 222 225 222 221 218 218 220 222 219 219 218 219 221 224 228 229 231 229 227 227
151 191 196 193 196 197 200 197 192 194 203 214 227 233 225 224 225 223 223 225 226 224 223 223 225 226 231 234 235 234 234 234
108 128 143 156 167 179 183 178 179 189 203 228 242 238 239 235 234 235 238 232 228 227 226 225 225 227 229 234 239 245 247 239
100 118 137 151 160 158 154 158 171 188 244 258 251 244 241 240 240 259 252 241 233 233 231 230 228 226 229 233 239 244 245 241
110 108 106 110 117 4 351 95 0 314 326 293 250 240 240 232 242 241 241 237 233 230 230 230 229 224 224 228 236 244 241 242
140 144 146 148 163 196 271 256 259 251 213 247 236 237 236 235 237 232 229 232 236 235 235 233 227 223 220 227 238 242 248 255
155 170 196 210 211 209 207 213 228 226 218 220 224 231 229 232 229 225 223 229 233 239 239 233 227 226 218 224 240 247 243 250
84 242 234 230 219 214 208 206 212 218 217 226 230 237 232 226 219 218 223 227 230 236 243 237 230 225 231 240 236 243 242 246
293 256 254 237 223 211 203 207 209 210 217 230 232 231 235 233 230 228 228 231 236 252 241 232 230 240 235 227 240 235 235 242
263 242 235 229 222 218 218 215 225 232 240 248 249 253 253 250 244 237 250 256 252 237 232 236 243 243 234 229 232 238 240 247
276 257 234 224 216 217 217 223 228 232 233 236 236 239 243 244 245 245 247 241 239 239 247 255 254 239 228 205 217 238 241 244
270 260 238 220 218 221 219 220 229 230 232 233 230 229 232 232 242 246 237 230 248 249 256 254 242 233 220 179 235 243 243 248
251 250 236 227 225 222 221 217 230 228 230 228 230 234 235 237 237 236 240 251 252 259 260 249 240 233 232 200 216 241 245 256
253 241 228 225 221 219 221 221 228 229 232 231 233 237 241 241 243 246 251 251 253 251 247 243 245 235 225 213 202 237 250 258
Height
1448 1453 1459 1462 1467 1471 1473 1475 1476 1480 1485 1489 1493 1496 1498 1500 1502 1504 1507 1509 1511 1512 1513 1515 1516 1518 1519 1521 1521 1521 1521 1521
1442 1448 1453 1459 1461 1464 1467 1469 1473 1476 1480 1483 1488 1489 1493 1494 1497 1500 1501 1504 1508 1509 1511 1513 1514 1516 1517 1519 1520 1520 1519 1520
1440 1441 1445 1447 1452 1454 1458 1462 1467 1471 1474 1477 1483 1487 1491 1493 1494 1495 1498 1500 1502 1505 1508 1510 1512 1513 1514 1515 1517 1518 1518 1518
1432 1433 1436 1439 1442 1444 1450 1456 1460 1466 1472 1476 1480 1485 1487 1488 1490 1492 1493 1496 1499 1502 1505 1508 1510 1511 1512 1513 1515 1515 1515 1515
1424 1426 1428 1430 1432 1439 1447 1454 1457 1461 1468 1472 1475 1480 1481 1484 1487 1491 1492 1494 1496 1499 1501 1504 1506 1508 1509 1510 1512 1513 1514 1514
1416 1416 1418 1425 1430 1434 1440 1446 1453 1460 1468 1475 1478 1480 1483 1486 1488 1489 1492 1494 1497 1499 1500 1503 1504 1506 1508 1508 1509 1511 1512 1512
1416 1421 1426 1428 1432 1435 1441 1446 1454 1463 1471 1475 1478 1482 1481 1484 1487 1489 1489 1493 1496 1497 1499 1501 1503 1504 1505 1505 1506 1507 1508 1508
1423 1425 1430 1433 1438 1441 1448 1454 1460 1465 1470 1474 1478 1482 1483 1484 1486 1486 1487 1487 1491 1495 1498 1500 1502 1502 1502 1503 1504 1505 1506 1506
1429 1432 1438 1442 1447 1451 1455 1459 1464 1465 1468 1473 1476 1482 1483 1483 1485 1487 1487 1488 1489 1490 1494 1498 1499 1500 1501 1502 1503 1504 1503 1503
1432 1437 1442 1446 1449 1455 1459 1463 1465 1465 1465 1471 1479 1479 1481 1480 1482 1484 1487 1488 1488 1488 1490 1492 1496 1496 1498 1499 1501 1503 1502 1501
1430 1432 1437 1440 1445 1448 1455 1460 1458 1464 1451 1467 1470 1475 1474 1478 1477 1481 1481 1485 1486 1486 1488 1490 1493 1493 1494 1495 1498 1500 1501 1501
1436 1435 1435 1438 1439 1441 1446 1447 1449 1455 1449 1464 1466 1468 1472 1473 1474 1476 1478 1480 1481 1483 1486 1488 1489 1492 1491 1492 1494 1497 1500 1499
1437 1437 1435 1437 1438 1441 1442 1444 1450 1452 1457 1466 1466 1470 1471 1470 1470 1472 1476 1477 1479 1481 1485 1486 1487 1489 1488 1488 1491 1495 1497 1497
1436 1437 1436 1435 1438 1443 1443 1447 1449 1453 1458 1462 1464 1466 1466 1466 1468 1470 1472 1475 1477 1480 1482 1483 1484 1487 1486 1484 1489 1491 1492 1494
1432 1432 1434 1436 1438 1440 1442 1445 1448 1451 1454 1459 1461 1462 1464 1466 1467 1469 1470 1473 1475 1476 1478 1480 1481 1480 1481 1479 1487 1489 1490 1491
1426 1428 1431 1434 1436 1437 1440 1443 1446 1449 1452 1455 1456 1459 1461 1463 1464 1466 1469 1470 1472 1474 1475 1475 1476 1475 1477 1477 1482 1486 1488 1488
1419 1423 1426 1428 1431 1433 1436 1440 1442 1446 1449 1452 1455 1456 1457 1461 1464 1464 1466 1468 1470 1470 1470 1470 1472 1473 1475 1475 1481 1485 1486 1487
1414 1417 1419 1421 1425 1429 1432 1436 1439 1441 1444 1448 1450 1453 1455 1457 1458 1460 1462 1464 1465 1467 1468 1470 1470 1470 1470 1473 1478 1482 1483 1485
1407 1409 1413 1415 1420 1425 1428 1432 1434 1437 1439 1442 1445 1449 1452 1453 1455 1457 1458 1460 1461 1463 1465 1467 1468 1469 1470 1471 1473 1478 1481 1482